Location: Copper Breaks State Park
(34.1132°N, 99.7492°W)
Time: 02:06:59
(UTC-05:00)

Amateur Radio Satellites - All Passes

Search period start: 30 March 2015 01:36
Search period end: 31 March 2015 01:36
Location: Copper Breaks State Park, 34.1132°N, 99.7492°W

Satellite Date Start Highest point End Downlink Frequencies (MHz)
Time Altitude Azimuth
CUBEBUG 1 30 Mar 01:41:56 01:42:43 10° 270° (W) 01:43:11 437.445
NANOSAT C BR1 30 Mar 01:42:02 01:45:05 19° 290° (WNW) 01:48:02 145.865
SPROUT 30 Mar 01:45:19 01:49:17 35° 262° (W) 01:53:14 437.525
ITUPSAT 1 30 Mar 01:46:10 01:50:02 25° 70° (ENE) 01:54:01 437.325
POLYITAN 1 30 Mar 01:46:58 01:49:46 17° 290° (WNW) 01:52:25 437.675
PCSat 30 Mar 02:12:04 02:16:47 30° 251° (WSW) 02:21:23 145.827
YUBILEINY 30 Mar 02:20:00 02:28:51 83° 265° (W) 02:37:36 435.215
Oscar 19 30 Mar 02:30:44 02:35:20 32° 97° (E) 02:39:59 437.125/150
SWISSCUBE 30 Mar 02:32:44 02:37:33 89° 264° (W) 02:42:23 437.505
BEESAT 30 Mar 02:35:37 02:40:24 90° 142° (SE) 02:45:14 436.000
KKS-1 30 Mar 02:37:09 02:39:30 15° 68° (ENE) 02:42:03 437.445
Gurwin Techsat 1B 30 Mar 02:52:44 02:54:27 12° 89° (E) 02:56:34 435.225
STARS 30 Mar 03:06:58 03:10:04 20° 70° (ENE) 03:13:19 437.465
ITUPSAT 1 30 Mar 03:23:42 03:27:52 28° 264° (W) 03:31:57 437.325
ITAMSAT 1 30 Mar 03:37:17 03:42:13 45° 99° (E) 03:47:10 435.822/435.867
RS-15 30 Mar 03:43:07 03:52:43 31° 42° (NE) 04:02:59 29.354- 29.394
AIST 1 30 Mar 04:03:42 04:05:54 14° 88° (E) 04:08:19
Oscar 19 30 Mar 04:10:19 04:14:33 25° 290° (WNW) 04:18:40 437.125/150
KKS-1 30 Mar 04:11:37 04:15:50 42° 261° (W) 04:20:02 437.445
O/OREOS (USA 219) 30 Mar 04:11:42 04:15:39 29° 104° (ESE) 04:19:40 437.305
YUBILEINY 30 Mar 04:20:55 04:24:33 12° 280° (W) 04:27:24 435.215
SO-50 30 Mar 04:28:01 04:32:38 38° 55° (NE) 04:37:13 436.795
Gurwin Techsat 1B 30 Mar 04:29:43 04:35:00 67° 285° (WNW) 04:40:16 435.225
STARS 30 Mar 04:42:31 04:46:23 29° 263° (W) 04:50:12 437.465
HORYU 2 30 Mar 04:43:08 04:47:16 36° 98° (E) 04:51:25 437.375
AO-7 30 Mar 04:46:51 04:53:39 29° 96° (E) 05:00:42 29.400- 29.500
JAS-2 30 Mar 04:54:00 05:00:16 29° 91° (E) 05:06:14 435.910
AUBIESAT-1 30 Mar 04:54:42 04:55:04 10° 60° (ENE) 04:55:41 437.475
M-CUBED/EXP-1 PRIME 30 Mar 05:16:50 05:19:51 21° 64° (ENE) 05:23:11 437.505
ITAMSAT 1 30 Mar 05:17:50 05:21:25 19° 293° (WNW) 05:24:49 435.822/435.867
VERMONT LUNAR 30 Mar 05:27:16 05:30:30 48° 151° (SSE) 05:33:45 437.305
AIST 1 30 Mar 05:39:09 05:43:16 38° 281° (W) 05:47:22
MOZHAYETS 4 30 Mar 05:51:01 05:55:37 73° 259° (W) 06:00:15
O/OREOS (USA 219) 30 Mar 05:51:29 05:55:06 22° 299° (WNW) 05:58:38 437.305
RS-15 30 Mar 05:54:51 06:06:28 78° 244° (WSW) 06:18:32 29.354- 29.394
CUBESAT XI-V 30 Mar 06:06:55 06:07:54 11° 67° (ENE) 06:09:11 437.345
ISS 30 Mar 06:08:04 06:11:02 33° 37° (NE) 06:13:59 145.825
SO-50 30 Mar 06:09:11 06:12:58 22° 249° (WSW) 06:16:35 436.795
PHONESAT 2.4 30 Mar 06:13:32 06:16:54 46° 150° (SSE) 06:20:18 2401.200-2431.200
HORYU 2 30 Mar 06:20:35 06:23:41 18° 291° (WNW) 06:26:37 437.375
AUBIESAT-1 30 Mar 06:25:25 06:29:18 62° 255° (WSW) 06:33:33 437.475
PRISM 30 Mar 06:35:22 06:38:01 17° 69° (ENE) 06:40:49 437.425
GONETS M04 30 Mar 06:38:07 06:45:24 29° 71° (ENE) 06:52:58
JAS-2 30 Mar 06:38:15 06:45:36 49° 289° (WNW) 06:52:15 435.910
AO-7 30 Mar 06:38:48 06:46:49 54° 292° (WNW) 06:54:45 29.400- 29.500
M-CUBED/EXP-1 PRIME 30 Mar 06:51:18 06:54:38 26° 261° (W) 06:58:09 437.505
VERMONT LUNAR 30 Mar 07:05:07 07:08:16 37° 346° (NNW) 07:11:26 437.305
STRAND 1 30 Mar 07:08:40 07:13:04 30° 71° (ENE) 07:17:35 437.568
CUBESAT XI-V 30 Mar 07:40:10 07:44:52 67° 259° (W) 07:49:33 437.345
CUTE-I 30 Mar 07:43:02 07:48:15 56° 100° (E) 07:53:28 437.470
Cubesat XI-IV 30 Mar 07:43:27 07:48:42 58° 100° (E) 07:53:55 437.490
ISS 30 Mar 07:45:02 07:47:16 17° 231° (SW) 07:49:24 145.825
PHONESAT 2.4 30 Mar 07:51:56 07:55:17 41° 345° (NNW) 07:58:39 2401.200-2431.200
PRISM 30 Mar 08:09:27 08:13:16 33° 262° (W) 08:17:05 437.425
RS-15 30 Mar 08:11:27 08:17:41 15° 258° (WSW) 08:22:50 29.354- 29.394
CUSAT 1 30 Mar 08:17:10 08:21:22 33° 80° (E) 08:26:49 437.405
GONETS M04 30 Mar 08:34:10 08:42:41 53° 269° (W) 08:51:05
VERMONT LUNAR 30 Mar 08:43:34 08:46:27 26° 2° (N) 08:49:21 437.305
STRAND 1 30 Mar 08:47:56 08:52:16 26° 265° (W) 08:56:31 437.568
DANDE 30 Mar 09:11:24 09:15:47 88° 80° (E) 09:21:45 436.750
GOMX 1 30 Mar 09:21:00 09:23:44 17° 94° (E) 09:26:44 467.674
CUTE-I 30 Mar 09:24:43 09:27:55 16° 294° (WNW) 09:30:53 437.470
Cubesat XI-IV 30 Mar 09:25:13 09:28:22 16° 294° (WNW) 09:31:17 437.490
HO-68 30 Mar 09:30:21 09:36:14 28° 95° (E) 09:42:18 435.675
PHONESAT 2.4 30 Mar 09:31:02 09:34:07 27° 2° (N) 09:37:13 2401.200-2431.200
SEEDS 30 Mar 09:31:26 09:33:37 14° 91° (E) 09:36:01 437.485
COMPASS 1 30 Mar 09:51:46 09:54:51 20° 94° (E) 09:58:04 437.405
BEESAT 3 30 Mar 09:55:38 09:58:24 18° 111° (ESE) 10:01:21 437.485
CUSAT 1 30 Mar 10:00:13 10:04:08 23° 264° (W) 10:08:45 437.405
CINEMA 3 30 Mar 10:15:20 10:18:55 24° 95° (E) 10:22:44 145.822/145.860
BRITE-PL 30 Mar 10:15:44 10:19:57 67° 284° (WNW) 10:24:24 437.365/2234.400
VERMONT LUNAR 30 Mar 10:21:17 10:24:34 51° 19° (NNE) 10:27:51 437.305
CUBEBUG 2 30 Mar 10:22:16 10:24:40 15° 92° (E) 10:27:19 437.445
CANX-2 30 Mar 10:23:43 10:28:03 87° 102° (ESE) 10:32:21 2200.000
DELFI C3 30 Mar 10:33:28 10:36:09 17° 93° (E) 10:38:59 145.870
AIST 2 30 Mar 10:37:23 10:39:44 15° 110° (ESE) 10:42:17 435.215
CUTE 1.7 + AOD 2 30 Mar 10:37:32 10:41:50 71° 283° (WNW) 10:46:07 437.475
DOVE 4 30 Mar 10:41:57 10:46:20 82° 283° (WNW) 10:50:59 437.250
POPSAT HIP 1 30 Mar 10:47:28 10:48:19 11° 68° (ENE) 10:49:26 437.405
BEESAT 2 30 Mar 10:56:06 11:00:12 84° 117° (ESE) 11:04:22 435.950
NANOSAT C BR1 30 Mar 10:56:20 10:58:28 14° 69° (ENE) 11:00:47 145.865
GOMX 1 30 Mar 10:58:03 11:02:00 34° 286° (WNW) 11:06:05 467.674
AAUSAT CUBESAT 2 30 Mar 10:58:29 11:02:43 69° 283° (WNW) 11:06:53 437.432
POLYITAN 1 30 Mar 11:00:58 11:03:33 17° 70° (ENE) 11:06:17 437.675
UKube-1 30 Mar 11:02:52 11:05:44 18° 94° (E) 11:08:45 .
SEEDS 30 Mar 11:05:38 11:09:38 38° 286° (WNW) 11:13:36 437.485
HUMSAT D 30 Mar 11:05:48 11:07:48 13° 92° (E) 11:10:03 437.325/437.525
PHONESAT 2.4 30 Mar 11:09:26 11:12:53 51° 18° (NNE) 11:16:21 2401.200-2431.200
UNISAT 6 30 Mar 11:09:32 11:13:31 42° 74° (ENE) 11:17:36 437.425
DX 1 30 Mar 11:13:46 11:17:22 26° 96° (E) 11:21:00 434.975-435.025
HO-68 30 Mar 11:17:21 11:24:12 48° 291° (WNW) 11:30:58 435.675
TIGRISAT 30 Mar 11:19:11 11:23:18 53° 75° (ENE) 11:27:30 435.000
COMPASS 1 30 Mar 11:26:56 11:30:34 27° 288° (WNW) 11:34:06 437.405
Oscar 11 30 Mar 11:30:55 11:35:16 66° 283° (WNW) 11:39:34 145.826/435.025
BEESAT 3 30 Mar 11:32:36 11:36:16 31° 305° (NW) 11:39:57 437.485
QB50P1 30 Mar 11:36:06 11:40:04 42° 74° (ENE) 11:44:05 145.935-145.965
DUCHIFAT 1 30 Mar 11:37:23 11:41:21 43° 74° (ENE) 11:45:21 145.980
50 SAT 30 Mar 11:40:02 11:43:07 21° 95° (E) 11:46:18 437.505
FUNcube-1 30 Mar 11:43:11 11:47:37 84° 102° (ESE) 11:52:08 145.935
ANTELSAT 30 Mar 11:49:56 11:54:08 60° 260° (W) 11:58:24 437.575/2403.000
UWE-3 30 Mar 11:50:05 11:54:29 63° 284° (WNW) 11:58:59 435.000/436.395/437.385
QB50P2 30 Mar 11:51:03 11:55:14 68° 76° (ENE) 11:59:26 145.880/145.840
CINEMA 3 30 Mar 11:52:21 11:56:06 26° 287° (WNW) 11:59:54 145.822/145.860
CUBEBUG 1 30 Mar 11:56:06 11:58:08 13° 91° (E) 12:00:24 437.445
ZACube-1 30 Mar 11:56:29 12:00:53 66° 284° (WNW) 12:05:21 437.345
CUBEBUG 2 30 Mar 11:57:21 12:01:34 42° 286° (WNW) 12:05:53 437.445
VELOX 1 30 Mar 11:57:24 12:01:23 34° 97° (E) 12:05:24 145.980
VERMONT LUNAR 30 Mar 11:59:12 12:02:10 28° 213° (SSW) 12:05:07 437.305
AISAT 30 Mar 12:02:24 12:06:33 40° 99° (E) 12:10:43 437.250
DELFI C3 30 Mar 12:07:49 12:11:23 28° 287° (WNW) 12:14:53 145.870
BUGSAT 1 30 Mar 12:13:26 12:17:37 88° 78° (ENE) 12:21:46 437.445
AIST 2 30 Mar 12:14:00 12:18:01 40° 303° (WNW) 12:22:05 435.215
POPSAT HIP 1 30 Mar 12:19:41 12:23:49 53° 260° (W) 12:27:57 437.405
NANOSAT C BR1 30 Mar 12:30:04 12:34:02 39° 262° (W) 12:37:59 145.865
ESTCUBE 1 30 Mar 12:35:12 12:39:33 47° 99° (E) 12:43:53 437.505/2401.250
POLYITAN 1 30 Mar 12:35:25 12:39:15 33° 263° (W) 12:43:03 437.675
UKube-1 30 Mar 12:38:08 12:41:59 31° 288° (WNW) 12:45:46 .
HUMSAT D 30 Mar 12:39:46 12:43:48 41° 285° (WNW) 12:47:49 437.325/437.525
PHONESAT 2.4 30 Mar 12:47:57 12:51:09 31° 213° (SSW) 12:54:20 2401.200-2431.200
UNISAT 6 30 Mar 12:48:36 12:50:37 13° 269° (W) 12:52:24 437.425
DX 1 30 Mar 12:50:06 12:53:30 22° 290° (WNW) 12:56:49 434.975-435.025
QB50P1 30 Mar 13:14:20 13:16:13 12° 269° (W) 13:17:52 145.935-145.965
50 SAT 30 Mar 13:14:44 13:17:59 23° 288° (WNW) 13:21:09 437.505
DUCHIFAT 1 30 Mar 13:15:39 13:17:27 12° 269° (W) 13:19:01 145.980
TISAT 1 30 Mar 13:21:36 13:25:09 27° 96° (E) 13:28:46 437.305
YUBILEINY 30 Mar 13:22:05 13:28:14 23° 84° (E) 13:34:50 435.215
CUBEBUG 1 30 Mar 13:30:41 13:34:45 41° 286° (WNW) 13:38:47 437.445
VELOX 1 30 Mar 13:34:44 13:37:45 18° 291° (WNW) 13:40:36 145.980
SPROUT 30 Mar 13:35:26 13:39:35 50° 99° (E) 13:43:46 437.525
AISAT 30 Mar 13:40:15 13:42:52 15° 292° (WNW) 13:45:18 437.250
Oscar 19 30 Mar 13:44:06 13:48:34 32° 71° (ENE) 13:53:08 437.125/150
JUGNU 30 Mar 14:07:47 14:11:05 15° 169° (S) 14:14:27 437.505
Gurwin Techsat 1B 30 Mar 14:10:06 14:12:45 15° 66° (ENE) 14:15:41 435.225
ESTCUBE 1 30 Mar 14:13:42 14:16:04 14° 292° (WNW) 14:18:13 437.505/2401.250
O/OREOS (USA 219) 30 Mar 14:25:12 14:29:12 31° 64° (ENE) 14:33:13 437.305
SWISSCUBE 30 Mar 14:37:22 14:41:35 31° 97° (E) 14:45:50 437.505
BEESAT 30 Mar 14:40:08 14:44:20 31° 97° (E) 14:48:35 436.000
ITAMSAT 1 30 Mar 14:51:30 14:56:29 47° 73° (ENE) 15:01:30 435.822/435.867
TISAT 1 30 Mar 14:57:43 15:00:49 20° 289° (WNW) 15:03:48 437.305
PCSat 30 Mar 15:06:01 15:11:19 61° 113° (ESE) 15:16:41 145.827
SRMSAT 30 Mar 15:10:04 15:12:25 12° 166° (SSE) 15:14:52 437.500
SPROUT 30 Mar 15:13:40 15:15:19 12° 292° (WNW) 15:16:42 437.525
YUBILEINY 30 Mar 15:15:43 15:24:26 65° 280° (W) 15:33:12 435.215
Oscar 19 30 Mar 15:23:49 15:27:58 24° 265° (W) 15:32:02 437.125/150
ITUPSAT 1 30 Mar 15:27:19 15:32:08 80° 282° (WNW) 15:36:54 437.325
HORYU 2 30 Mar 15:38:35 15:41:52 21° 70° (ENE) 15:45:18 437.375
AO-7 30 Mar 15:42:14 15:48:59 30° 62° (ENE) 15:55:57 29.400- 29.500
Gurwin Techsat 1B 30 Mar 15:47:02 15:52:16 62° 259° (W) 15:57:33 435.225
AIST 1 30 Mar 15:50:15 15:54:08 33° 78° (ENE) 15:58:02
JUGNU 30 Mar 15:55:12 15:59:27 20° 178° (S) 16:03:43 437.505
O/OREOS (USA 219) 30 Mar 16:05:07 16:08:27 20° 258° (WSW) 16:11:36 437.305
KKS-1 30 Mar 16:06:18 16:10:35 47° 100° (E) 16:14:54 437.445
SWISSCUBE 30 Mar 16:15:34 16:19:18 22° 290° (WNW) 16:22:53 437.505
BEESAT 30 Mar 16:18:17 16:22:03 23° 290° (WNW) 16:25:41 436.000
ITAMSAT 1 30 Mar 16:32:50 16:36:17 17° 268° (W) 16:39:30 435.822/435.867
STARS 30 Mar 16:35:22 16:39:45 65° 101° (E) 16:44:08 437.465
JAS-2 30 Mar 16:44:21 16:50:55 55° 72° (ENE) 16:58:18 435.910
PCSat 30 Mar 16:51:36 16:55:14 17° 310° (NW) 16:58:41 145.827
SRMSAT 30 Mar 16:56:49 17:00:56 19° 175° (S) 17:05:03 437.500
HORYU 2 30 Mar 17:14:34 17:18:24 28° 264° (W) 17:22:12 437.375
AIST 1 30 Mar 17:29:03 17:31:32 15° 272° (W) 17:33:49
AO-7 30 Mar 17:33:18 17:41:25 55° 258° (WSW) 17:49:30 29.400- 29.500
JUGNU 30 Mar 17:44:00 17:47:50 17° 188° (S) 17:51:37 437.505
KKS-1 30 Mar 17:44:38 17:46:52 13° 292° (WNW) 17:48:53 437.445
MOZHAYETS 4 30 Mar 17:50:14 17:54:30 35° 97° (E) 17:58:45
RS-15 30 Mar 18:05:40 18:12:44 21° 104° (ESE) 18:20:30 29.354- 29.394
AUBIESAT-1 30 Mar 18:11:29 18:14:22 16° 96° (E) 18:17:24 437.475
JAS-2 30 Mar 18:31:00 18:36:28 24° 270° (W) 18:42:08 435.910
M-CUBED/EXP-1 PRIME 30 Mar 18:35:53 18:40:18 35° 101° (E) 18:44:36 437.505
SO-50 30 Mar 18:39:24 18:43:14 27° 112° (ESE) 18:47:15 436.795
SRMSAT 30 Mar 18:45:23 18:49:28 19° 185° (S) 18:53:31 437.500
CUTE-I 30 Mar 19:01:06 19:06:23 64° 75° (ENE) 19:11:43 437.470
Cubesat XI-IV 30 Mar 19:01:40 19:06:59 66° 75° (ENE) 19:12:19 437.490
BEESAT 2 30 Mar 19:20:05 19:22:50 17° 50° (NE) 19:25:40 435.950
STRAND 1 30 Mar 19:24:29 19:26:44 13° 91° (E) 19:29:17 437.568
MOZHAYETS 4 30 Mar 19:28:11 19:31:30 19° 291° (WNW) 19:34:38
GONETS M04 30 Mar 19:34:22 19:42:01 38° 88° (E) 19:49:54
CUBESAT XI-V 30 Mar 19:40:58 19:45:18 40° 97° (E) 19:49:38 437.345
AUBIESAT-1 30 Mar 19:44:49 19:49:26 45° 291° (WNW) 19:53:51 437.475
BEESAT 3 30 Mar 19:54:39 19:58:37 47° 58° (ENE) 20:02:32 437.485
PRISM 30 Mar 19:55:31 19:59:29 43° 99° (E) 20:03:26 437.425
HO-68 30 Mar 19:57:43 20:01:07 15° 59° (ENE) 20:04:56 435.675
M-CUBED/EXP-1 PRIME 30 Mar 20:11:09 20:14:56 22° 295° (WNW) 20:18:32 437.505
RS-15 30 Mar 20:13:08 20:24:03 81° 300° (WNW) 20:35:08 29.354- 29.394
SO-50 30 Mar 20:19:43 20:23:43 28° 308° (NW) 20:27:47 436.795
GOMX 1 30 Mar 20:27:27 20:29:05 12° 69° (ENE) 20:30:56 467.674
SRMSAT 30 Mar 20:35:40 20:37:58 12° 194° (SSW) 20:40:09 437.500
AIST 2 30 Mar 20:39:13 20:43:13 40° 57° (ENE) 20:47:10 435.215
CUTE-I 30 Mar 20:44:30 20:47:00 13° 270° (W) 20:49:07 437.470
Cubesat XI-IV 30 Mar 20:45:17 20:47:38 12° 270° (W) 20:49:38 437.490
BEESAT 2 30 Mar 20:57:20 21:01:08 36° 246° (WSW) 21:04:51 435.950
STRAND 1 30 Mar 21:01:22 21:06:23 57° 286° (WNW) 21:11:21 437.568
CANX-2 30 Mar 21:13:10 21:17:02 37° 74° (ENE) 21:20:59 2200.000
CINEMA 3 30 Mar 21:15:37 21:17:29 13° 69° (ENE) 21:19:34 145.822/145.860
CUBESAT XI-V 30 Mar 21:19:30 21:22:27 17° 291° (WNW) 21:25:14 437.345
BRITE-PL 30 Mar 21:22:51 21:27:39 89° 258° (WSW) 21:32:07 437.365/2234.400
CUSAT 1 30 Mar 21:25:08 21:27:50 32° 97° (E) 21:30:17 437.405
CUTE 1.7 + AOD 2 30 Mar 21:26:40 21:30:44 49° 75° (ENE) 21:34:52 437.475
GONETS M04 30 Mar 21:30:45 21:38:49 40° 285° (WNW) 21:46:50
PRISM 30 Mar 21:32:43 21:34:38 13° 292° (WNW) 21:36:20 437.425
BEESAT 3 30 Mar 21:34:49 21:36:18 11° 251° (WSW) 21:37:32 437.485
HO-68 30 Mar 21:40:50 21:48:00 89° 75° (ENE) 21:55:14 435.675
DOVE 4 30 Mar 21:44:18 21:48:37 64° 77° (ENE) 21:52:48 437.250
AAUSAT CUBESAT 2 30 Mar 21:45:39 21:49:37 46° 75° (ENE) 21:53:40 437.432
SEEDS 30 Mar 21:53:35 21:57:47 88° 78° (ENE) 22:02:02 437.485
UKube-1 30 Mar 21:57:00 21:57:21 10° 67° (ENE) 21:57:59 .
GOMX 1 30 Mar 22:02:33 22:06:58 48° 261° (W) 22:11:08 467.674
DX 1 30 Mar 22:07:02 22:09:26 15° 68° (ENE) 22:12:02 434.975-435.025
COMPASS 1 30 Mar 22:13:51 22:17:59 64° 260° (W) 22:22:09 437.405
AIST 2 30 Mar 22:19:06 22:21:29 14° 250° (WSW) 22:23:41 435.215
Oscar 11 30 Mar 22:21:48 22:26:01 58° 76° (ENE) 22:30:17 145.826/435.025
DANDE 30 Mar 22:23:33 22:26:27 31° 279° (W) 22:28:57 436.750
RS-15 30 Mar 22:30:22 22:38:36 22° 326° (NW) 22:46:35 29.354- 29.394
FUNcube-1 30 Mar 22:35:47 22:39:36 38° 74° (ENE) 22:43:29 145.935
UWE-3 30 Mar 22:43:47 22:47:53 65° 76° (ENE) 22:52:00 435.000/436.395/437.385
ISS 30 Mar 22:44:03 22:47:18 83° 133° (SE) 22:50:34 145.825
ZACube-1 30 Mar 22:49:00 22:53:03 58° 76° (ENE) 22:57:09 437.345
CINEMA 3 30 Mar 22:50:27 22:54:26 40° 262° (W) 22:58:21 145.822/145.860
CANX-2 30 Mar 22:50:46 22:53:11 14° 269° (W) 22:55:24 2200.000
DELFI C3 30 Mar 22:51:09 22:55:13 79° 259° (W) 22:59:19 145.870
CUBEBUG 2 30 Mar 22:51:58 22:56:08 79° 258° (WSW) 23:00:17 437.445
VELOX 1 30 Mar 22:52:14 22:55:26 20° 70° (ENE) 22:58:45 145.980
AISAT 30 Mar 22:57:16 23:00:46 24° 71° (ENE) 23:04:21 437.250
CUTE 1.7 + AOD 2 30 Mar 23:05:52 23:07:01 11° 270° (W) 23:07:53 437.475
UNISAT 6 30 Mar 23:06:42 23:08:43 13° 91° (E) 23:11:01 437.425
TIGRISAT 30 Mar 23:15:34 23:18:21 16° 92° (E) 23:21:21 435.000
AAUSAT CUBESAT 2 30 Mar 23:24:21 23:25:36 11° 270° (W) 23:26:35 437.432
HUMSAT D 30 Mar 23:27:43 23:31:48 84° 78° (ENE) 23:35:56 437.325/437.525
UKube-1 30 Mar 23:28:46 23:33:03 60° 259° (W) 23:37:22 .
ESTCUBE 1 30 Mar 23:31:32 23:35:23 28° 72° (ENE) 23:39:19 437.505/2401.250
HO-68 30 Mar 23:33:29 23:36:43 13° 272° (W) 23:39:22 435.675
DX 1 30 Mar 23:41:17 23:45:24 40° 261° (W) 23:49:30 434.975-435.025
QB50P2 30 Mar 23:41:38 23:43:59 15° 92° (E) 23:46:31 145.880/145.840
ANTELSAT 30 Mar 23:45:30 23:49:46 37° 98° (E) 23:54:07 437.575/2403.000
50 SAT 30 Mar 23:56:18 00:00:10 64° 260° (W) 00:04:04 437.505
PCSat 30 Mar 23:58:21 00:02:32 23° 53° (NE) 00:06:51 145.827
BUGSAT 1 31 Mar 00:00:47 00:03:14 16° 93° (E) 00:05:50 437.445
POPSAT HIP 1 31 Mar 00:08:53 00:12:39 31° 97° (E) 00:16:27 437.405
TISAT 1 31 Mar 00:11:54 00:13:53 14° 69° (ENE) 00:16:05 437.305
FUNcube-1 31 Mar 00:14:11 00:16:12 13° 269° (W) 00:17:59 145.935
NANOSAT C BR1 31 Mar 00:18:39 00:22:39 41° 99° (E) 00:26:40 145.865
CUBEBUG 1 31 Mar 00:22:38 00:27:03 82° 258° (WSW) 00:31:28 437.445
ISS 31 Mar 00:22:42 00:24:07 12° 333° (NNW) 00:25:26 145.825
POLYITAN 1 31 Mar 00:24:14 00:28:22 50° 99° (E) 00:32:31 437.675
SPROUT 31 Mar 00:26:33 00:29:59 24° 72° (ENE) 00:33:30 437.525
VELOX 1 31 Mar 00:27:55 00:31:51 30° 263° (W) 00:35:43 145.980
AISAT 31 Mar 00:33:35 00:37:18 25° 264° (W) 00:40:55 437.250
UNISAT 6 31 Mar 00:41:21 00:45:49 50° 285° (WNW) 00:50:20 437.425
TIGRISAT 31 Mar 00:50:58 00:55:17 40° 286° (WNW) 00:59:37 435.000
RS-15 31 Mar 00:55:13 00:57:18 11° 1° (N) 00:59:26 29.354- 29.394
QB50P1 31 Mar 01:00:31 01:04:40 57° 285° (WNW) 01:08:49 145.935-145.965
DUCHIFAT 1 31 Mar 01:01:26 01:05:35 57° 285° (WNW) 01:09:42 145.980
ESTCUBE 1 31 Mar 01:08:40 01:12:16 22° 265° (W) 01:15:46 437.505/2401.250
QB50P2 31 Mar 01:16:09 01:20:03 36° 287° (WNW) 01:23:56 145.880/145.840
ANTELSAT 31 Mar 01:23:05 01:26:20 18° 290° (WNW) 01:29:26 437.575/2403.000
